Time,TemperatureF,DewpointF,PressureIn,WindDirection,WindDirectionDegrees,WindSpeedMPH,WindSpeedGustMPH,Humidity,HourlyPrecipIn,Conditions,Clouds,dailyrainin,SolarRadiationWatts/m^2,SoftwareType,DateUTC
2013-05-01 00:01:00,48.0,36.0,-100.00,East,85,5.0,9.0,62,-99.99,,,-99.99,0.000000,,2013-05-01 07:01:00,
2013-05-01 00:32:00,48.0,36.0,-100.00,ENE,66,4.0,9.0,63,-99.99,,,-99.99,0.000000,,2013-05-01 07:32:00,
2013-05-01 00:42:00,48.0,36.0,-100.00,ENE,66,4.0,9.0,63,-99.99,,,-99.99,0.000000,,2013-05-01 07:42:00,
2013-05-01 00:52:00,48.0,36.0,-100.00,ENE,66,4.0,9.0,63,-99.99,,,-99.99,0.000000,,2013-05-01 07:52:00,
2013-05-01 01:32:00,45.0,32.0,-100.00,ENE,72,5.0,6.0,59,0.00,,,-99.99,0.000000,,2013-05-01 08:32:00,
2013-05-01 02:02:00,45.0,30.0,-100.00,ENE,77,5.0,7.0,56,-99.99,,,-99.99,0.000000,,2013-05-01 09:02:00,
2013-05-01 02:33:00,45.0,30.0,-100.00,ENE,77,5.0,7.0,56,-99.99,,,-99.99,0.000000,,2013-05-01 09:33:00,
2013-05-01 02:43:00,45.0,30.0,-100.00,ENE,77,5.0,7.0,56,-99.99,,,-99.99,0.000000,,2013-05-01 09:43:00,
2013-05-01 02:53:00,45.0,30.0,-100.00,ENE,77,5.0,7.0,56,-99.99,,,-99.99,0.000000,,2013-05-01 09:53:00,
2013-05-01 03:22:00,46.0,31.0,-100.00,East,91,7.0,10.0,55,-99.99,,,-99.99,0.000000,,2013-05-01 10:22:00,
2013-05-01 03:33:00,46.0,31.0,-100.00,East,91,7.0,10.0,55,-99.99,,,-99.99,0.000000,,2013-05-01 10:33:00,
2013-05-01 04:22:00,45.0,31.0,-100.00,ENE,70,3.0,9.0,57,-99.99,,,-99.99,0.000000,,2013-05-01 11:22:00,
2013-05-01 04:32:00,45.0,31.0,-100.00,ENE,70,3.0,9.0,57,-99.99,,,-99.99,0.000000,,2013-05-01 11:32:00,
2013-05-01 05:32:00,47.0,25.0,-100.00,NE,42,4.0,8.0,42,-99.99,,,-99.99,0.000000,,2013-05-01 12:32:00,
2013-05-01 05:42:00,47.0,25.0,-100.00,NE,42,4.0,8.0,42,-99.99,,,-99.99,0.000000,,2013-05-01 12:42:00,
2013-05-01 05:52:00,47.0,25.0,-100.00,NE,42,4.0,8.0,42,-99.99,,,-99.99,0.000000,,2013-05-01 12:52:00,
2013-05-01 06:01:00,47.0,25.0,-100.00,NE,42,4.0,8.0,42,-99.99,,,-99.99,0.000000,,2013-05-01 13:01:00,
2013-05-01 06:32:00,44.0,26.0,-100.00,NE,42,4.0,8.0,49,0.00,,,-99.99,1.000000,,2013-05-01 13:32:00,
2013-05-01 06:42:00,44.0,26.0,-100.00,NE,42,4.0,8.0,49,0.00,,,-99.99,1.000000,,2013-05-01 13:42:00,
2013-05-01 06:52:00,44.0,26.0,-100.00,NE,42,4.0,8.0,49,0.00,,,-99.99,1.000000,,2013-05-01 13:52:00,
2013-05-01 07:01:00,44.0,26.0,-100.00,NE,42,4.0,8.0,49,0.00,,,-99.99,1.000000,,2013-05-01 14:01:00,
2013-05-01 07:22:00,48.0,22.0,-100.00,NE,42,4.0,8.0,35,0.00,,,-99.99,38.000000,,2013-05-01 14:22:00,
2013-05-01 07:32:00,48.0,22.0,-100.00,NE,42,4.0,8.0,35,0.00,,,-99.99,38.000000,,2013-05-01 14:32:00,
2013-05-01 08:22:00,52.0,22.0,-100.00,NE,50,3.0,7.0,31,0.00,,,-99.99,265.000000,,2013-05-01 15:22:00,
2013-05-01 08:33:00,52.0,22.0,-100.00,NE,50,3.0,7.0,31,0.00,,,-99.99,265.000000,,2013-05-01 15:33:00,
2013-05-01 09:32:00,56.0,24.0,-100.00,NE,47,3.0,5.0,29,0.00,,,-99.99,495.000000,,2013-05-01 16:32:00,
2013-05-01 10:22:00,57.0,35.0,-100.00,SW,218,4.0,8.0,43,0.00,,,-99.99,707.000000,,2013-05-01 17:22:00,
2013-05-01 10:32:00,57.0,35.0,-100.00,SW,218,4.0,8.0,43,0.00,,,-99.99,707.000000,,2013-05-01 17:32:00,
2013-05-01 11:32:00,59.0,37.0,-100.00,West,273,5.0,9.0,44,-99.99,,,-99.99,869.000000,,2013-05-01 18:32:00,
2013-05-01 12:32:00,60.0,38.0,-100.00,West,262,6.0,13.0,44,-99.99,,,0.00,985.000000,,2013-05-01 19:32:00,
2013-05-01 13:32:00,59.0,39.0,-100.00,WSW,239,9.0,15.0,47,-99.99,,,0.00,1035.000000,,2013-05-01 20:32:00,
2013-05-01 14:22:00,61.0,38.0,-100.00,WSW,258,6.0,14.0,42,-99.99,,,0.00,1028.000000,,2013-05-01 21:22:00,
2013-05-01 14:32:00,61.0,38.0,-100.00,WSW,258,6.0,14.0,42,-99.99,,,0.00,1028.000000,,2013-05-01 21:32:00,
2013-05-01 15:23:00,60.0,37.0,-100.00,SW,234,9.0,15.0,42,-99.99,,,0.00,923.000000,,2013-05-01 22:23:00,
2013-05-01 15:33:00,60.0,37.0,-100.00,SW,234,9.0,15.0,42,-99.99,,,0.00,923.000000,,2013-05-01 22:33:00,
2013-05-01 16:32:00,60.0,36.0,-100.00,WSW,254,7.0,14.0,40,-99.99,,,0.00,625.000000,,2013-05-01 23:32:00,
2013-05-01 17:22:00,58.0,35.0,-100.00,WSW,237,8.0,15.0,42,-99.99,,,0.00,248.000000,,2013-05-02 00:22:00,
2013-05-01 17:32:00,58.0,35.0,-100.00,WSW,237,8.0,15.0,42,-99.99,,,0.00,248.000000,,2013-05-02 00:32:00,
2013-05-01 18:32:00,58.0,36.0,-100.00,West,260,5.0,12.0,43,-99.99,,,0.00,101.000000,,2013-05-02 01:32:00,
2013-05-01 19:22:00,54.0,36.0,-100.00,North,4,5.0,9.0,50,-99.99,,,0.00,225.000000,,2013-05-02 02:22:00,
2013-05-01 19:32:00,54.0,36.0,-100.00,North,4,5.0,9.0,50,-99.99,,,0.00,225.000000,,2013-05-02 02:32:00,
2013-05-01 19:42:00,54.0,36.0,-100.00,North,4,5.0,9.0,50,-99.99,,,0.00,225.000000,,2013-05-02 02:42:00,
2013-05-01 19:51:00,54.0,36.0,-100.00,North,4,5.0,9.0,50,-99.99,,,0.00,225.000000,,2013-05-02 02:51:00,
2013-05-01 20:22:00,49.0,35.0,-100.00,North,10,3.0,5.0,58,-99.99,,,0.00,27.000000,,2013-05-02 03:22:00,
2013-05-01 20:33:00,49.0,35.0,-100.00,North,10,3.0,5.0,58,-99.99,,,0.00,27.000000,,2013-05-02 03:33:00,
2013-05-01 21:23:00,47.0,33.0,-100.00,East,80,2.0,6.0,58,-99.99,,,0.00,0.000000,,2013-05-02 04:23:00,
2013-05-01 21:33:00,47.0,33.0,-100.00,East,80,2.0,6.0,58,-99.99,,,0.00,0.000000,,2013-05-02 04:33:00,
2013-05-01 22:32:00,48.0,34.0,-100.00,ENE,77,4.0,8.0,58,-99.99,,,0.00,0.000000,,2013-05-02 05:32:00,
2013-05-01 23:32:00,50.0,21.0,-100.00,ESE,105,5.0,7.0,32,-99.99,,,0.00,0.000000,,2013-05-02 06:32:00,